Time,TemperatureF,DewpointF,PressureIn,WindDirection,WindDirectionDegrees,WindSpeedMPH,WindSpeedGustMPH,Humidity,HourlyPrecipIn,Conditions,Clouds,dailyrainin,SolarRadiationWatts/m^2,SoftwareType,DateUTC
2013-07-28 00:10:00,63.8,60.2,23.19,ESE,107,0.0,0.0,88,0.00,,,0.00,0,Wunderground v.1.15,2013-07-28 04:10:00,
2013-07-28 00:20:00,63.9,60.0,23.19,ESE,107,0.0,0.0,87,0.00,,,0.00,0,Wunderground v.1.15,2013-07-28 04:20:00,
2013-07-28 00:40:00,63.8,59.9,23.19,ESE,107,0.0,0.0,87,0.00,,,0.00,0,Wunderground v.1.15,2013-07-28 04:40:00,
2013-07-28 00:50:00,63.6,59.7,23.19,ESE,107,0.0,0.0,87,0.00,,,0.00,0,Wunderground v.1.15,2013-07-28 04:50:00,
2013-07-28 01:10:00,63.6,60.0,23.19,ESE,107,0.0,0.0,88,0.00,,,0.00,0,Wunderground v.1.15,2013-07-28 05:10:00,
2013-07-28 01:20:00,63.8,60.5,23.19,ESE,107,0.0,0.0,89,0.00,,,0.00,0,Wunderground v.1.15,2013-07-28 05:20:00,
2013-07-28 01:40:00,63.8,60.5,23.19,ESE,107,0.0,0.0,89,0.00,,,0.00,0,Wunderground v.1.15,2013-07-28 05:40:00,
2013-07-28 01:50:00,63.9,60.6,23.19,ESE,107,0.0,0.0,89,0.00,,,0.00,0,Wunderground v.1.15,2013-07-28 05:50:00,
2013-07-28 02:00:00,64.1,60.5,23.19,ESE,107,0.0,0.0,88,0.00,,,0.00,0,Wunderground v.1.15,2013-07-28 06:00:00,
2013-07-28 02:10:00,64.1,60.5,23.19,ESE,107,0.0,0.0,88,0.00,,,0.00,0,Wunderground v.1.15,2013-07-28 06:10:00,
2013-07-28 02:20:00,63.9,60.6,23.18,ESE,107,0.0,0.0,89,0.00,,,0.00,0,Wunderground v.1.15,2013-07-28 06:20:00,
2013-07-28 02:40:00,63.8,60.5,23.18,ESE,107,0.0,0.0,89,0.00,,,0.00,0,Wunderground v.1.15,2013-07-28 06:40:00,
2013-07-28 02:50:00,63.6,60.3,23.18,ESE,107,0.0,0.0,89,0.00,,,0.00,0,Wunderground v.1.15,2013-07-28 06:50:00,
2013-07-28 03:10:00,63.6,60.6,23.18,ESE,107,0.0,0.0,90,0.00,,,0.00,0,Wunderground v.1.15,2013-07-28 07:10:00,
2013-07-28 03:20:00,63.4,60.4,23.18,ESE,107,0.0,0.0,90,0.00,,,0.00,0,Wunderground v.1.15,2013-07-28 07:20:00,
2013-07-28 03:40:00,63.3,60.3,23.18,ESE,107,0.0,0.0,90,0.00,,,0.00,0,Wunderground v.1.15,2013-07-28 07:40:00,
2013-07-28 03:50:00,63.3,60.3,23.18,ESE,107,0.0,0.0,90,0.00,,,0.00,0,Wunderground v.1.15,2013-07-28 07:50:00,
2013-07-28 04:10:00,63.1,60.4,23.18,ESE,107,0.0,0.0,91,0.00,,,0.00,0,Wunderground v.1.15,2013-07-28 08:10:00,
2013-07-28 04:20:00,63.1,60.4,23.18,ESE,107,0.0,0.0,91,0.00,,,0.00,0,Wunderground v.1.15,2013-07-28 08:20:00,
2013-07-28 04:40:00,63.0,60.3,23.18,ESE,107,0.0,0.0,91,0.00,,,0.00,0,Wunderground v.1.15,2013-07-28 08:40:00,
2013-07-28 04:50:00,63.0,60.3,23.18,ESE,107,0.0,1.0,91,0.00,,,0.00,0,Wunderground v.1.15,2013-07-28 08:50:00,
2013-07-28 05:10:00,63.0,60.6,23.18,ESE,107,0.0,0.0,92,0.00,,,0.00,0,Wunderground v.1.15,2013-07-28 09:10:00,
2013-07-28 05:20:00,62.8,60.4,23.19,ESE,107,0.0,0.0,92,0.00,,,0.00,0,Wunderground v.1.15,2013-07-28 09:20:00,
2013-07-28 05:40:00,62.6,60.2,23.19,ESE,107,0.0,0.0,92,0.00,,,0.00,0,Wunderground v.1.15,2013-07-28 09:40:00,
2013-07-28 05:50:00,62.6,60.2,23.19,ESE,107,0.0,0.0,92,0.00,,,0.00,0,Wunderground v.1.15,2013-07-28 09:50:00,
2013-07-28 06:10:00,62.5,60.1,23.19,ESE,107,0.0,0.0,92,0.00,,,0.00,0,Wunderground v.1.15,2013-07-28 10:10:00,
2013-07-28 06:20:00,62.5,60.1,23.19,ESE,107,0.0,0.0,92,0.00,,,0.00,12,Wunderground v.1.15,2013-07-28 10:20:00,
2013-07-28 06:30:00,62.5,60.1,23.19,ESE,107,0.0,2.0,92,0.00,,,0.00,18,Wunderground v.1.15,2013-07-28 10:30:00,
2013-07-28 06:40:00,62.5,60.4,23.19,ESE,107,0.0,0.0,93,0.00,,,0.00,25,Wunderground v.1.15,2013-07-28 10:40:00,
2013-07-28 06:50:00,62.6,60.5,23.19,East,101,1.0,1.0,93,0.00,,,0.00,39,Wunderground v.1.15,2013-07-28 10:50:00,
2013-07-28 07:10:00,63.0,60.9,23.19,East,101,0.0,0.0,93,0.00,,,0.00,28,Wunderground v.1.15,2013-07-28 11:10:00,
2013-07-28 07:20:00,63.0,60.9,23.19,East,101,0.0,0.0,93,0.00,,,0.00,33,Wunderground v.1.15,2013-07-28 11:20:00,
2013-07-28 07:40:00,63.6,61.2,23.19,East,96,0.0,0.0,92,0.00,,,0.00,65,Wunderground v.1.15,2013-07-28 11:40:00,
2013-07-28 07:50:00,64.1,61.7,23.19,East,83,0.0,2.0,92,0.00,,,0.00,144,Wunderground v.1.15,2013-07-28 11:50:00,
2013-07-28 08:10:00,64.9,61.6,23.19,ENE,71,1.0,1.0,89,0.00,,,0.00,186,Wunderground v.1.15,2013-07-28 12:10:00,
2013-07-28 08:20:00,66.3,62.3,23.19,ENE,76,1.0,1.0,87,0.00,,,0.00,483,Wunderground v.1.15,2013-07-28 12:20:00,
2013-07-28 08:40:00,68.7,62.6,23.19,ENE,78,1.0,1.0,81,0.00,,,0.00,230,Wunderground v.1.15,2013-07-28 12:40:00,
2013-07-28 08:50:00,70.0,62.8,23.19,ESE,108,1.0,2.0,78,0.00,,,0.00,248,Wunderground v.1.15,2013-07-28 12:50:00,
2013-07-28 09:10:00,71.7,62.6,23.19,SE,132,1.0,1.0,73,0.00,,,0.00,302,Wunderground v.1.15,2013-07-28 13:10:00,
2013-07-28 09:20:00,71.7,63.4,23.19,SE,128,1.0,2.0,75,0.00,,,0.00,504,Wunderground v.1.15,2013-07-28 13:20:00,
2013-07-28 09:40:00,72.7,63.5,23.18,ESE,113,1.0,1.0,73,0.00,,,0.00,322,Wunderground v.1.15,2013-07-28 13:40:00,
2013-07-28 09:50:00,73.8,63.0,23.18,SSE,158,2.0,2.0,69,0.00,,,0.00,462,Wunderground v.1.15,2013-07-28 13:50:00,
2013-07-28 10:00:00,74.8,62.7,23.18,SSE,166,2.0,6.0,66,0.00,,,0.00,591,Wunderground v.1.15,2013-07-28 14:00:00,
2013-07-28 10:10:00,75.3,62.3,23.18,SSE,153,4.0,4.0,64,0.00,,,0.00,671,Wunderground v.1.15,2013-07-28 14:10:00,
2013-07-28 10:20:00,76.0,62.9,23.18,SSE,168,5.0,6.0,64,0.00,,,0.00,555,Wunderground v.1.15,2013-07-28 14:20:00,
2013-07-28 10:40:00,76.4,62.9,23.18,SSW,205,5.0,8.0,63,0.00,,,0.00,548,Wunderground v.1.15,2013-07-28 14:40:00,
2013-07-28 10:50:00,77.1,63.5,23.18,SSE,163,3.0,3.0,63,0.00,,,0.00,640,Wunderground v.1.15,2013-07-28 14:50:00,
2013-07-28 11:00:00,77.1,62.6,23.18,South,169,0.0,0.0,61,0.00,,,0.00,624,Wunderground v.1.15,2013-07-28 15:00:00,
2013-07-28 11:10:00,77.6,62.6,23.18,SE,133,0.0,0.0,60,0.00,,,0.00,617,Wunderground v.1.15,2013-07-28 15:10:00,
2013-07-28 11:20:00,77.8,63.3,23.18,SSE,168,0.0,0.0,61,0.00,,,0.00,557,Wunderground v.1.15,2013-07-28 15:20:00,
2013-07-28 11:40:00,78.7,63.6,23.18,SW,215,0.0,0.0,60,0.00,,,0.00,548,Wunderground v.1.15,2013-07-28 15:40:00,
2013-07-28 11:50:00,78.7,62.7,23.18,SSE,158,0.0,0.0,58,0.00,,,0.00,457,Wunderground v.1.15,2013-07-28 15:50:00,
2013-07-28 12:10:00,78.4,62.9,23.18,South,175,0.0,0.0,59,0.00,,,0.00,367,Wunderground v.1.15,2013-07-28 16:10:00,
2013-07-28 12:20:00,78.0,63.0,23.18,South,174,0.0,0.0,60,0.00,,,0.00,200,Wunderground v.1.15,2013-07-28 16:20:00,
2013-07-28 12:30:00,77.8,63.3,23.18,SSE,159,0.0,0.0,61,0.00,,,0.00,388,Wunderground v.1.15,2013-07-28 16:30:00,
2013-07-28 12:40:00,78.2,63.2,23.18,ESE,123,0.0,0.0,60,0.00,,,0.00,469,Wunderground v.1.15,2013-07-28 16:40:00,
2013-07-28 12:50:00,79.3,63.2,23.18,SSE,162,0.0,0.0,58,0.00,,,0.00,911,Wunderground v.1.15,2013-07-28 16:50:00,
2013-07-28 13:10:00,79.8,63.2,23.18,South,173,5.0,7.0,57,0.00,,,0.00,489,Wunderground v.1.15,2013-07-28 17:10:00,
2013-07-28 13:20:00,79.5,62.9,23.18,SSE,159,4.0,4.0,57,0.00,,,0.00,643,Wunderground v.1.15,2013-07-28 17:20:00,
2013-07-28 13:40:00,79.5,63.4,23.18,ESE,109,5.0,5.0,58,0.00,,,0.00,410,Wunderground v.1.15,2013-07-28 17:40:00,
2013-07-28 13:50:00,79.1,64.0,23.18,South,178,4.0,4.0,60,0.00,,,0.00,350,Wunderground v.1.15,2013-07-28 17:50:00,
2013-07-28 14:10:00,78.2,63.2,23.18,South,182,4.0,8.0,60,0.00,,,0.00,364,Wunderground v.1.15,2013-07-28 18:10:00,
2013-07-28 14:20:00,77.6,62.6,23.18,South,169,5.0,5.0,60,0.00,,,0.00,281,Wunderground v.1.15,2013-07-28 18:20:00,
2013-07-28 14:31:00,77.6,62.6,23.18,SSE,162,4.0,4.0,60,0.00,,,0.00,272,Wunderground v.1.15,2013-07-28 18:31:00,
2013-07-28 14:40:00,77.8,63.3,23.17,SSE,157,2.0,4.0,61,0.00,,,0.00,262,Wunderground v.1.15,2013-07-28 18:40:00,
2013-07-28 14:50:00,77.6,63.5,23.17,SE,143,3.0,3.0,62,0.00,,,0.00,376,Wunderground v.1.15,2013-07-28 18:50:00,
2013-07-28 15:10:00,78.7,64.1,23.17,South,177,2.0,4.0,61,0.00,,,0.00,325,Wunderground v.1.15,2013-07-28 19:10:00,
2013-07-28 15:20:00,78.4,63.4,23.17,SSE,164,5.0,7.0,60,0.00,,,0.00,299,Wunderground v.1.15,2013-07-28 19:20:00,
2013-07-28 15:30:00,78.0,63.0,23.17,South,176,5.0,6.0,60,0.00,,,0.00,148,Wunderground v.1.15,2013-07-28 19:30:00,
2013-07-28 15:40:00,77.5,63.0,23.17,SSE,157,4.0,4.0,61,0.00,,,0.00,181,Wunderground v.1.15,2013-07-28 19:40:00,
2013-07-28 15:50:00,77.3,62.8,23.17,South,180,5.0,6.0,61,0.00,,,0.00,156,Wunderground v.1.15,2013-07-28 19:50:00,
2013-07-28 16:10:00,76.7,62.7,23.17,SSE,148,4.0,4.0,62,0.00,,,0.00,63,Wunderground v.1.15,2013-07-28 20:10:00,
2013-07-28 16:20:00,76.4,63.3,23.17,SSW,194,4.0,5.0,64,0.00,,,0.00,39,Wunderground v.1.15,2013-07-28 20:20:00,
2013-07-28 16:40:00,75.9,63.3,23.17,SSE,158,3.0,3.0,65,0.00,,,0.00,16,Wunderground v.1.15,2013-07-28 20:40:00,
2013-07-28 16:50:00,75.7,63.5,23.17,South,191,2.0,2.0,66,0.00,,,0.00,14,Wunderground v.1.15,2013-07-28 20:50:00,
2013-07-28 17:10:00,73.9,65.9,23.17,WNW,294,1.0,1.0,76,0.15,,,0.02,30,Wunderground v.1.15,2013-07-28 21:10:00,
2013-07-28 17:20:00,71.7,66.3,23.17,SE,136,2.0,2.0,83,0.11,,,0.04,69,Wunderground v.1.15,2013-07-28 21:20:00,
2013-07-28 17:40:00,70.7,66.3,23.17,SW,216,4.0,4.0,86,0.00,,,0.04,16,Wunderground v.1.15,2013-07-28 21:40:00,
2013-07-28 17:50:00,70.3,66.2,23.17,West,280,1.0,1.0,87,0.00,,,0.04,32,Wunderground v.1.15,2013-07-28 21:50:00,
2013-07-28 18:10:00,70.2,66.5,23.17,West,281,0.0,0.0,88,0.00,,,0.04,90,Wunderground v.1.15,2013-07-28 22:10:00,
2013-07-28 18:20:00,70.5,67.1,23.17,West,281,0.0,0.0,89,0.00,,,0.04,83,Wunderground v.1.15,2013-07-28 22:20:00,
2013-07-28 18:40:00,70.3,66.9,23.17,West,267,1.0,1.0,89,0.34,,,0.06,19,Wunderground v.1.15,2013-07-28 22:40:00,
2013-07-28 18:50:00,69.8,66.4,23.18,West,267,0.0,1.0,89,0.61,,,0.10,11,Wunderground v.1.15,2013-07-28 22:50:00,
2013-07-28 19:10:00,69.3,66.6,23.18,West,264,0.0,0.0,91,0.11,,,0.20,16,Wunderground v.1.15,2013-07-28 23:10:00,
2013-07-28 19:20:00,69.5,67.1,23.18,West,263,0.0,2.0,92,0.04,,,0.20,19,Wunderground v.1.15,2013-07-28 23:20:00,
2013-07-28 19:40:00,69.3,66.9,23.18,West,263,0.0,0.0,92,0.00,,,0.20,11,Wunderground v.1.15,2013-07-28 23:40:00,
2013-07-28 19:50:00,69.0,66.6,23.18,WSW,257,1.0,2.0,92,0.00,,,0.20,0,Wunderground v.1.15,2013-07-28 23:50:00,
2013-07-28 20:00:00,68.0,65.3,23.18,WSW,248,4.0,5.0,91,0.00,,,0.21,5,Wunderground v.1.15,2013-07-29 00:00:00,
2013-07-28 20:10:00,67.3,64.6,23.18,WNW,296,3.0,3.0,91,0.00,,,0.21,0,Wunderground v.1.15,2013-07-29 00:10:00,
2013-07-28 20:20:00,67.2,64.5,23.18,West,272,2.0,5.0,91,0.00,,,0.21,0,Wunderground v.1.15,2013-07-29 00:20:00,
2013-07-28 20:40:00,66.5,63.8,23.18,WNW,287,1.0,4.0,91,0.00,,,0.21,0,Wunderground v.1.15,2013-07-29 00:40:00,
2013-07-28 20:50:00,66.5,63.8,23.18,West,281,0.0,0.0,91,0.00,,,0.21,0,Wunderground v.1.15,2013-07-29 00:50:00,
2013-07-28 21:10:00,66.5,64.1,23.18,West,279,0.0,0.0,92,0.00,,,0.21,0,Wunderground v.1.15,2013-07-29 01:10:00,
2013-07-28 21:20:00,66.5,64.1,23.18,West,277,0.0,0.0,92,0.00,,,0.21,0,Wunderground v.1.15,2013-07-29 01:20:00,
2013-07-28 21:30:00,66.3,63.9,23.18,WNW,284,1.0,1.0,92,0.13,,,0.23,0,Wunderground v.1.15,2013-07-29 01:30:00,
2013-07-28 21:40:00,66.3,63.9,23.18,West,275,1.0,5.0,92,0.10,,,0.24,0,Wunderground v.1.15,2013-07-29 01:40:00,
2013-07-28 21:50:00,66.3,63.9,23.18,WSW,253,1.0,1.0,92,0.05,,,0.24,0,Wunderground v.1.15,2013-07-29 01:50:00,
2013-07-28 22:10:00,66.2,64.1,23.18,WSW,249,1.0,1.0,93,0.06,,,0.28,0,Wunderground v.1.15,2013-07-29 02:10:00,
2013-07-28 22:20:00,66.0,63.9,23.18,West,279,2.0,2.0,93,0.06,,,0.28,0,Wunderground v.1.15,2013-07-29 02:20:00,
2013-07-28 22:30:00,65.9,63.8,23.18,WNW,285,0.0,0.0,93,0.00,,,0.28,0,Wunderground v.1.15,2013-07-29 02:30:00,
2013-07-28 22:40:00,65.7,63.3,23.18,NW,305,0.0,0.0,92,0.00,,,0.28,0,Wunderground v.1.15,2013-07-29 02:40:00,
2013-07-28 22:50:00,65.5,63.1,23.18,WSW,254,0.0,0.0,92,0.00,,,0.28,0,Wunderground v.1.15,2013-07-29 02:50:00,
2013-07-28 23:10:00,65.4,63.0,23.18,WSW,254,0.0,0.0,92,0.00,,,0.28,0,Wunderground v.1.15,2013-07-29 03:10:00,
2013-07-28 23:20:00,65.2,62.8,23.19,WSW,254,0.0,0.0,92,0.00,,,0.28,0,Wunderground v.1.15,2013-07-29 03:20:00,
2013-07-28 23:40:00,64.9,62.8,23.19,WSW,254,0.0,0.0,93,0.00,,,0.28,0,Wunderground v.1.15,2013-07-29 03:40:00,
2013-07-28 23:50:00,64.7,62.6,23.19,WSW,244,0.0,0.0,93,0.00,,,0.28,0,Wunderground v.1.15,2013-07-29 03:50:00,